Weather History for Essaouira, Morocco

Change the Weather History Date:

Monday, December 9, 2013

  Actual Average Record
Temperature  
Mean Temperature 60 °F -  
Max Temperature 70 °F 66 °F - ()
Min Temperature 50 °F 53 °F - ()
Degree Days  
Heating Degree Days 5    
Growing Degree Days 10 (Base 50)    
Moisture  
Dew Point 42 °F    
Average Humidity 43    
Maximum Humidity 68    
Minimum Humidity 25    
Precipitation  
Precipitation 0.00 in 0.08 in - ()
Sea Level Pressure  
Sea Level Pressure 30.19 in    
Wind  
Wind Speed 5 mph ()    
Max Wind Speed 11 mph    
Max Gust Speed -    
Visibility 4.8 miles    
Events      
T = Trace of Precipitation, MM = Missing Value Source: Averaged Metar Reports

Daily Weather History Graph

Daily Weather History Graph

Search for Another Location

Airport:

Trip Planner

Search our weather history database for the weather conditions in past years. The results will help you decide how hot, cold, wet, or windy it might be!

Date:

Astronomy

Dec. 09, 2013 Rise Set
Actual Time 7:26 AM WET 5:36 PM WET
Civil Twilight 7:00 AM WET 6:02 PM WET
Nautical Twilight 6:29 AM WET 6:33 PM WET
Astronomical Twilight 6:00 AM WET 7:02 PM WET
Moon 12:33 PM WET (12/9) No Moon Set
Length of Visible Light 11h 02m
Length of Day
10h 09m
Waxing Crescent, 48% of the Moon is Illuminated
Dec 9
Waxing Crescent
Dec 9
First Quarter
Dec 17
Full
Dec 25
Last Quarter
Jan 1
New

Hourly Weather History & Observations

Time (WET) Temp. Dew Point Humidity Pressure Visibility Wind Dir Wind Speed Gust Speed Precip Events Conditions
12:00 AM 57 °F 45 °F 54% 30.15 in - East 4.5 mph - -  
3:00 AM 57 °F 39 °F 39% 30.15 in - NE 11.2 mph - -  
6:00 AM 55 °F 38 °F 41% 30.12 in - 4.5 mph - -  
8:00 AM 50.0 °F 35.6 °F 58% 30.21 in 5.0 mi SSE 3.5 mph - N/A   Unknown
9:00 AM 61 °F 42 °F 37% 30.22 in 4 mi ENE 4.6 mph - -   Partly Cloudy
9:00 AM 59.0 °F 37.4 °F 45% 30.21 in 5.0 mi ENE 3.5 mph - N/A   Unknown
10:00 AM 66.2 °F 37.4 °F 35% 30.24 in 5.0 mi ENE 4.6 mph - N/A   Unknown
11:00 AM 69.8 °F 35.6 °F 28% 30.24 in 5.0 mi ENE 5.8 mph - N/A   Unknown
12:00 PM 69 °F 53 °F 47% 30.22 in 4 mi North 6.9 mph - -   Partly Cloudy
12:00 PM 73.4 °F 35.6 °F 25% 30.21 in 5.0 mi NE 4.6 mph - N/A   Unknown
1:00 PM 73.4 °F 35.6 °F 25% 30.18 in 5.0 mi NW 5.8 mph - N/A   Unknown
2:00 PM 73.4 °F 39.2 °F 29% 30.18 in 5.0 mi West 6.9 mph - N/A   Unknown
3:00 PM 69 °F 53 °F 47% 30.16 in 4 mi North 6.9 mph - -   Partly Cloudy
3:00 PM 71.6 °F 39.2 °F 31% 30.15 in 5.0 mi WNW 6.9 mph - N/A   Unknown
4:00 PM 69.8 °F 37.4 °F 31% 30.15 in 5.0 mi WNW 6.9 mph - N/A   Unknown
5:00 PM 66.2 °F 50.0 °F 56% 30.18 in 5.0 mi WSW 4.6 mph - N/A   Unknown
6:00 PM 64 °F 53 °F 59% 30.19 in 5 mi North 4.6 mph - -   Partly Cloudy
6:00 PM 62.6 °F 46.4 °F 55% 30.18 in 5.0 mi Calm Calm - N/A   Unknown
9:00 PM 61 °F 53 °F 68% 30.18 in - NNE 4.5 mph - -